Malaga, Spain

4:25 AM CEST on August 19, 2017 (GMT +0200)
Malaga

Weather History for LEMG - February, 2013

Change the Weather History Date:

Sunday, February 3, 2013

  Actual Average Record
Temperature  
Mean Temperature 54 °F -  
Max Temperature 64 °F 61 °F 69 °F (1997)
Min Temperature 44 °F 45 °F 35 °F (1999)
Degree Days  
Heating Degree Days 11    
Growing Degree Days 4 (Base 50)    
Moisture  
Dew Point 34 °F    
Average Humidity 52    
Maximum Humidity 81    
Minimum Humidity 18    
Precipitation  
Precipitation 0.00 in 0.10 in - ()
Sea Level Pressure  
Sea Level Pressure 30.28 in    
Wind  
Wind Speed 12 mph ()    
Max Wind Speed 22 mph    
Max Gust Speed 36 mph    
Visibility 10.1 miles    
Events      
Averages and records for this station are not official NWS values.
T = Trace of Precipitation, MM = Missing Value Source: Averaged Metar Reports

Daily Weather History Graph

Daily Weather History Graph

Search for Another Location

Airport or City:

Trip Planner

Search our weather history database for the weather conditions in past years. The results will help you decide how hot, cold, wet, or windy it might be!

Date:

Astronomy

Feb. 03, 2013 Rise Set
Actual Time 8:18 AM CET 6:45 PM CET
Civil Twilight 7:51 AM CET 7:12 PM CET
Nautical Twilight 7:20 AM CET 7:43 PM CET
Astronomical Twilight 6:49 AM CET 8:14 PM CET
Moon 1:29 AM CET (2/3) 12:13 PM CET (2/3)
Length of Visible Light 11h 21m
Length of Day
10h 27m
Waning Gibbous, 51% of the Moon is Illuminated
Feb 3
Waning Gibbous
Feb 3
Last Quarter
Feb 10
New
Feb 17
First Quarter
Feb 25
Full

Hourly Weather History & Observations

Time (CET) Temp. Windchill Dew Point Humidity Pressure Visibility Wind Dir Wind Speed Gust Speed Precip Events Conditions
12:00 AM 50.0 °F - 35.6 °F 58% 30.24 in - WNW 11.5 mph - N/A   Clear
12:30 AM 48.2 °F - 35.6 °F 62% 30.24 in - NW 8.1 mph - N/A   Clear
1:00 AM 52 °F - 35 °F 40% 30.26 in 12 mi WNW 10.4 mph - -  
1:00 AM 48.2 °F - 35.6 °F 62% 30.24 in - WNW 10.4 mph - N/A   Clear
1:30 AM 50.0 °F - 35.6 °F 58% 30.24 in - WNW 13.8 mph - N/A   Clear
2:00 AM 50.0 °F - 35.6 °F 58% 30.24 in - WNW 16.1 mph - N/A   Clear
2:30 AM 50.0 °F - 35.6 °F 58% 30.21 in - WNW 19.6 mph - N/A   Clear
3:00 AM 50.0 °F - 35.6 °F 58% 30.24 in - WNW 19.6 mph - N/A   Clear
3:30 AM 50.0 °F - 35.6 °F 58% 30.24 in - WNW 21.9 mph - N/A   Clear
4:00 AM 50.0 °F - 35.6 °F 58% 30.21 in - WNW 19.6 mph 32.2 mph N/A   Clear
4:30 AM 48.2 °F - 35.6 °F 62% 30.24 in - WNW 17.3 mph - N/A   Clear
5:00 AM 50.0 °F - 33.8 °F 54% 30.24 in - West 13.8 mph - N/A   Clear
5:30 AM 50.0 °F - 33.8 °F 54% 30.24 in - WNW 20.7 mph - N/A   Clear
6:00 AM 50.0 °F - 33.8 °F 54% 30.24 in - WNW 20.7 mph 32.2 mph N/A   Clear
6:30 AM 48.2 °F - 33.8 °F 58% 30.24 in - WNW 19.6 mph - N/A   Clear
7:00 AM 50 °F - 33 °F 39% 30.27 in 12 mi WNW 15.0 mph - -  
7:00 AM 48.2 °F - 32.0 °F 54% 30.27 in - NW 15.0 mph - N/A   Clear
7:30 AM 48.2 °F - 32.0 °F 54% 30.27 in 6.2 mi NW 11.5 mph - N/A   Partly Cloudy
8:00 AM 44.6 °F 38.4 °F 33.8 °F 66% 30.30 in - WNW 12.7 mph - N/A   Clear
8:30 AM 44.6 °F 38.4 °F 33.8 °F 66% 30.33 in - WNW 12.7 mph - N/A   Clear
9:00 AM 46.4 °F 41.1 °F 33.8 °F 62% 30.33 in - West 11.5 mph - N/A   Clear
9:30 AM 50.0 °F - 32.0 °F 50% 30.30 in - NW 15.0 mph - N/A   Clear
10:00 AM 51.8 °F - 30.2 °F 44% 30.30 in - NW 16.1 mph - N/A   Clear
10:30 AM 53.6 °F - 28.4 °F 38% 30.30 in - NW 21.9 mph 35.7 mph N/A   Clear
11:00 AM 53.6 °F - 32.0 °F 44% 30.30 in - NW 18.4 mph 34.5 mph N/A   Clear
11:30 AM 57.2 °F - 30.2 °F 36% 30.33 in - NW 13.8 mph 26.5 mph N/A   Clear
12:00 PM 59.0 °F - 24.8 °F 27% 30.30 in - NW 17.3 mph 31.1 mph N/A   Clear
12:30 PM 60.8 °F - 24.8 °F 25% 30.30 in - NNW 19.6 mph 31.1 mph N/A   Clear
1:00 PM 61 °F - 31 °F 20% 30.30 in 25 mi NNW 16.1 mph - -   Clear
1:00 PM 60.8 °F - 23.0 °F 23% 30.30 in - NNW 16.1 mph - N/A   Clear
1:30 PM 60.8 °F - 26.6 °F 27% 30.27 in - NW 13.8 mph 31.1 mph N/A   Clear
2:30 PM 64.4 °F - 19.4 °F 18% 30.24 in - NNW 10.4 mph - N/A   Clear
3:30 PM 64.4 °F - 23.0 °F 21% 30.24 in - NNW 9.2 mph - N/A   Clear
4:00 PM 64.4 °F - 23.0 °F 21% 30.24 in - NNW 11.5 mph - N/A   Clear
4:30 PM 64.4 °F - 21.2 °F 19% 30.24 in - NE 8.1 mph 26.5 mph N/A   Clear
5:00 PM 62.6 °F - 17.6 °F 18% 30.24 in - ENE 8.1 mph - N/A   Clear
5:30 PM 59.0 °F - 39.2 °F 48% 30.27 in - ESE 8.1 mph - N/A   Clear
6:00 PM 57.2 °F - 44.6 °F 63% 30.27 in - SE 5.8 mph - N/A   Clear
6:30 PM 55.4 °F - 42.8 °F 63% 30.30 in - SE 3.5 mph - N/A   Clear
7:00 PM 56 °F - 44 °F 55% 30.31 in 25 mi SE 2.3 mph - -   Clear
7:00 PM 53.6 °F - 42.8 °F 67% 30.30 in - SE 2.3 mph - N/A   Clear
7:30 PM 55.4 °F - 42.8 °F 63% 30.30 in - ENE 3.5 mph - N/A   Clear
8:00 PM 53.6 °F - 42.8 °F 67% 30.30 in - ENE 3.5 mph - N/A   Clear
8:30 PM 51.8 °F - 42.8 °F 71% 30.33 in - Calm Calm - N/A   Clear
9:00 PM 48.2 °F - 41.0 °F 76% 30.33 in - WNW 2.3 mph - N/A   Clear
9:30 PM 46.4 °F 43.5 °F 41.0 °F 81% 30.36 in - WNW 5.8 mph - N/A   Clear
10:00 PM 46.4 °F 45.2 °F 39.2 °F 76% 30.36 in - West 3.5 mph - N/A   Clear
10:30 PM 46.4 °F 45.2 °F 39.2 °F 76% 30.36 in - NW 3.5 mph - N/A   Clear
11:00 PM 46.4 °F 45.2 °F 39.2 °F 76% 30.36 in - NW 3.5 mph - N/A   Clear
11:30 PM 46.4 °F - 37.4 °F 71% 30.36 in - Variable 2.3 mph - N/A   Clear